Retour au catalogue

INTELSAT 33E DEB

ActifGEO
NORAD 64405·DEBRIS· XX

Lancé Aug 24, 2016 depuis Guiana Space Centre

Loading…

TLE

FraisSource: Space-Track

Époque: Sep 13, 2026, 10:33 UTC

1 64405U 16053AK  26256.44008422 -.00000236  00000-0  00000+0 0  9990
2 64405   1.9501  90.3321 0080731  32.2185 329.0149  0.99504465  6786

Suivez INTELSAT 33E DEB en temps réel avec AllMySat

Download on the App Store